Weather reports worldwide

Advertisment
Portglenone, United Kingdom (3915): temperature & dewpoint: 16.06.2018 19:00:00 - 22.06.2018 19:00:00 (BST)Portglenone, United Kingdom (3915): temperature -20cm & temperature -100cm: 16.06.2018 19:00:00 - 22.06.2018 19:00:00 (BST)Portglenone, United Kingdom (3915): wind speed & gusts: 16.06.2018 19:00:00 - 22.06.2018 19:00:00 (BST)Portglenone, United Kingdom (3915): wind direction: 16.06.2018 19:00:00 - 22.06.2018 19:00:00 (BST)Portglenone, United Kingdom (3915): reduced air pressure: 16.06.2018 19:00:00 - 22.06.2018 19:00:00 (BST)Portglenone, United Kingdom (3915): visibility: 16.06.2018 19:00:00 - 22.06.2018 19:00:00 (BST)Portglenone, United Kingdom (3915): precipitation: 16.06.2018 19:00:00 - 22.06.2018 19:00:00 (BST)
Date & Time tt [°C] td [°C] tt -20cm [°C] tt -100cm [°C] ff [km/h] ff [kn] fx [km/h] fx [kn] dd ppp [hPa] vv [km] rr [mm]
22.06.2018 19:00:00 13,8 7,8 - - 13 7 - - NNW 1031,9 25 0,0
22.06.2018 18:00:00 15,8 8,5 - - 16 9 - - NNW 1032,0 23 0,0
22.06.2018 17:00:00 15,6 8,4 - - 13 7 - - NNW 1032,4 28 0,0
22.06.2018 16:00:00 13,9 8,2 - - 13 7 - - NNW 1032,8 24 0,0
22.06.2018 15:00:00 13,8 8,3 - - 15 8 - - NNW 1033,1 27 0,0
22.06.2018 14:00:00 16,5 9,2 - - 13 7 - - WNW 1033,1 17 0,0
22.06.2018 13:00:00 15,0 8,2 - - 13 7 - - NNW 1033,5 20 0,0
22.06.2018 12:00:00 13,7 7,3 - - 13 7 - - NNW 1033,7 27 0,0
22.06.2018 11:00:00 14,3 8,4 - - 16 9 - - NW 1033,7 24 0,0
22.06.2018 10:00:00 13,8 8,2 17,0 13,7 15 8 - - NW 1033,8 30 0,0
22.06.2018 09:00:00 11,7 7,8 - - 11 6 - - NNW 1033,8 23 0,0
22.06.2018 08:00:00 10,6 7,7 - - 5 3 - - NW 1033,9 19 0,0
22.06.2018 07:00:00 9,4 8,1 - - 2 1 - - SSE 1033,6 19 0,0
22.06.2018 06:00:00 8,3 7,3 - - 5 3 - - SE 1033,5 20 0,0
22.06.2018 05:00:00 7,3 6,6 - - 5 3 - - SE 1033,5 17 0,0
22.06.2018 04:00:00 6,9 6,2 - - 4 2 - - NW 1033,7 20 0,0
22.06.2018 03:00:00 5,9 4,8 - - 2 1 - - N 1033,7 19 0,0
22.06.2018 02:00:00 7,9 7,2 - - 5 3 - - NW 1033,8 18 0,0
22.06.2018 01:00:00 7,2 6,2 - - 5 3 - - N 1033,6 16 0,0
22.06.2018 00:00:00 7,8 6,0 - - 5 3 - - NNW 1034,0 18 0,0
21.06.2018 23:00:00 9,0 6,5 - - 11 6 - - NW 1034,0 17 0,0
21.06.2018 22:00:00 10,0 6,3 - - 15 8 - - NW 1033,5 19 0,0
21.06.2018 21:00:00 11,5 6,2 - - 15 8 - - NW 1033,4 18 0,0
21.06.2018 20:00:00 12,0 6,1 - - 22 12 - - NW 1033,0 21 0,0
21.06.2018 19:00:00 13,3 6,2 - - 24 13 - - NW 1032,4 18 0,0
21.06.2018 18:00:00 14,0 6,1 - - 22 12 46 25 NW 1032,3 21 0,0
21.06.2018 17:00:00 14,0 5,6 - - 22 12 46 25 NNW 1031,9 20 0,0
21.06.2018 16:00:00 14,3 5,5 - - 26 14 - - NW 1031,7 17 0,0
21.06.2018 15:00:00 14,0 5,8 - - 28 15 - - NNW 1031,1 20 0,0
21.06.2018 14:00:00 12,7 5,3 - - 24 13 - - NNW 1031,0 23 0,0
21.06.2018 13:00:00 14,2 7,3 - - 26 14 - - NW 1030,2 30 0,0
21.06.2018 12:00:00 13,1 6,3 - - 28 15 - - NNW 1030,0 26 0,0
21.06.2018 11:00:00 12,8 6,3 - - 24 13 - - NNW 1029,4 25 0,0
21.06.2018 10:00:00 12,2 7,6 17,0 13,7 18 10 - - NNW 1029,1 30 0,0
21.06.2018 09:00:00 10,1 7,4 - - 13 7 - - NW 1028,5 23 0,0
21.06.2018 08:00:00 10,5 7,4 - - 15 8 - - NW 1027,6 23 0,0
21.06.2018 07:00:00 9,3 7,3 - - 9 5 - - NW 1027,1 13 0,0
21.06.2018 06:00:00 6,9 5,5 - - 8 4 - - NNW 1026,5 21 0,0
21.06.2018 05:00:00 7,3 5,6 - - 8 4 - - NW 1025,7 19 0,0
21.06.2018 04:00:00 7,9 6,2 - - 16 9 - - NW 1024,9 22 0,0
21.06.2018 03:00:00 8,3 6,6 - - 16 9 - - NW 1024,4 20 0,0
21.06.2018 02:00:00 8,2 6,1 - - 13 7 - - W 1024,2 18 0,0
21.06.2018 01:00:00 8,4 5,9 - - 11 6 - - WNW 1023,8 17 0,0
21.06.2018 00:00:00 7,9 5,8 - - 16 9 - - WNW 1023,2 20 0,0
20.06.2018 23:00:00 8,6 6,0 - - 24 13 - - WNW 1022,5 19 0,0
20.06.2018 22:00:00 8,6 6,7 - - 18 10 46 25 WNW 1022,0 27 0,2
20.06.2018 21:00:00 10,5 6,8 - - 15 8 - - W 1021,3 23 0,0
20.06.2018 20:00:00 12,5 6,0 - - 16 9 - - W 1021,2 25 0,0
20.06.2018 19:00:00 11,3 7,4 - - 13 7 - - W 1021,4 26 0,0
20.06.2018 18:00:00 12,8 5,9 - - 16 9 - - WNW 1020,9 27 0,0
20.06.2018 17:00:00 12,9 6,3 - - 13 7 - - W 1020,8 24 0,0
20.06.2018 16:00:00 12,9 6,5 - - 21 11 - - WNW 1020,6 27 0,0
20.06.2018 15:00:00 13,5 6,2 - - 18 10 - - WNW 1020,1 21 0,0
20.06.2018 14:00:00 13,4 7,4 - - 22 12 - - NW 1020,0 26 0,0
20.06.2018 13:00:00 13,5 6,2 - - 21 11 - - WNW 1019,4 15 0,0
20.06.2018 12:00:00 13,1 8,5 - - 18 10 - - NW 1019,1 13 0,0
20.06.2018 11:00:00 11,7 7,7 - - 22 12 - - WNW 1018,3 18 0,0
20.06.2018 10:00:00 12,7 8,4 17,2 13,7 24 13 - - NW 1017,2 20 0,0
20.06.2018 09:00:00 10,5 8,3 - - 16 9 - - NW 1016,3 21 0,0
20.06.2018 08:00:00 10,1 8,5 - - 21 11 - - NW 1014,8 18 0,0
20.06.2018 07:00:00 9,5 8,8 - - 13 7 - - NNW 1013,8 19 0,2
20.06.2018 06:00:00 9,9 9,3 - - 29 16 48 26 NW 1012,0 6 1,4
20.06.2018 05:00:00 14,9 13,7 - - 16 9 - - SW 1009,8 20 0,0
20.06.2018 04:00:00 15,5 14,2 - - 16 9 - - SSW 1009,3 28 0,0
20.06.2018 03:00:00 15,5 14,5 - - 13 7 - - SSW 1009,5 40 0,0
20.06.2018 02:00:00 15,6 15,1 - - 18 10 - - S 1009,9 50 0,4
20.06.2018 01:00:00 15,1 15,0 - - 13 7 - - S 1010,2 13 1,0
20.06.2018 00:00:00 14,5 14,4 - - 13 7 - - SSE 1010,4 3,6 1,2
19.06.2018 23:00:00 14,3 14,1 - - 9 5 - - S 1011,0 7 2,8
19.06.2018 22:00:00 13,6 13,4 - - 9 5 - - SSE 1011,1 7 0,4
19.06.2018 21:00:00 12,1 11,8 - - 11 6 - - SSE 1011,6 6 1,2
19.06.2018 20:00:00 11,3 10,8 - - 13 7 - - ESE 1012,4 5 1,6
19.06.2018 19:00:00 11,0 10,4 - - 15 8 - - ESE 1013,5 6 1,4
19.06.2018 18:00:00 11,2 10,5 - - 16 9 - - SE 1014,8 8 0,6
19.06.2018 17:00:00 11,1 10,4 - - 9 5 - - SSE 1016,0 3,7 1,8
19.06.2018 16:00:00 11,3 9,5 - - 11 6 - - SSE 1016,7 3,8 1,2
19.06.2018 15:00:00 13,0 7,8 - - 11 6 - - S 1017,0 14 0,0
19.06.2018 14:00:00 13,1 8,3 - - 11 6 - - S 1018,0 16 0,0
19.06.2018 13:00:00 12,3 8,3 - - 15 8 - - S 1018,6 26 0,0
19.06.2018 12:00:00 11,3 8,8 - - 15 8 - - S 1019,2 12 0,2
19.06.2018 11:00:00 11,6 8,6 - - 11 6 - - S 1019,4 12 0,0
19.06.2018 10:00:00 11,0 8,2 17,2 13,7 9 5 - - S 1019,5 13 0,0
19.06.2018 09:00:00 10,7 7,5 - - 9 5 - - SSW 1019,4 15 0,0
19.06.2018 08:00:00 10,2 7,2 - - 9 5 - - SSW 1019,3 15 0,0
19.06.2018 07:00:00 9,5 7,2 - - 8 4 - - S 1019,0 17 0,0
19.06.2018 06:00:00 8,4 6,9 - - 8 4 - - S 1018,9 17 0,0
19.06.2018 05:00:00 8,1 6,1 - - 8 4 - - S 1018,8 16 0,0
19.06.2018 04:00:00 8,2 5,6 - - 9 5 - - SSW 1018,5 17 0,0
19.06.2018 03:00:00 7,1 4,9 - - 8 4 - - SE 1018,3 16 0,0
19.06.2018 02:00:00 9,0 5,3 - - 8 4 - - WSW 1018,1 18 0,0
19.06.2018 01:00:00 9,7 5,4 - - 9 5 - - WSW 1018,0 17 0,0
19.06.2018 00:00:00 9,9 5,6 - - 5 3 - - W 1017,7 16 0,0
18.06.2018 23:00:00 10,5 6,4 - - 16 9 - - W 1017,1 15 0,0
18.06.2018 22:00:00 11,3 5,6 - - 16 9 - - W 1016,0 19 0,0
18.06.2018 21:00:00 13,6 7,0 - - 15 8 - - W 1015,1 17 0,0
18.06.2018 20:00:00 13,9 6,5 - - 21 11 - - W 1014,3 21 0,0
18.06.2018 19:00:00 14,3 7,9 - - 16 9 - - WSW 1013,7 19 0,0
18.06.2018 18:00:00 14,0 9,4 - - 15 8 - - WSW 1013,6 15 0,0
18.06.2018 17:00:00 13,9 9,6 - - 21 11 - - W 1013,3 20 0,0
18.06.2018 16:00:00 14,6 9,1 - - 15 8 46 25 W 1013,0 21 0,0
18.06.2018 15:00:00 15,3 8,8 - - 15 8 - - WSW 1012,9 24 0,0
18.06.2018 14:00:00 16,3 9,1 - - 15 8 - - WSW 1012,5 26 0,0
18.06.2018 13:00:00 16,2 9,4 - - 18 10 - - SSW 1012,5 30 0,0
18.06.2018 12:00:00 15,2 9,2 - - 16 9 - - SW 1012,7 22 0,0
18.06.2018 11:00:00 14,8 9,2 - - 24 13 - - WSW 1013,0 18 0,0
18.06.2018 10:00:00 12,9 9,3 17,4 13,7 13 7 - - SW 1013,0 19 0,0
18.06.2018 09:00:00 12,7 9,2 - - 16 9 - - SSW 1012,8 22 0,0
18.06.2018 08:00:00 11,5 8,9 - - 13 7 - - SSW 1012,5 16 0,0
18.06.2018 07:00:00 11,2 8,4 - - 15 8 - - S 1012,4 15 0,0
18.06.2018 06:00:00 11,0 8,2 - - 13 7 - - S 1012,7 15 0,0
18.06.2018 05:00:00 11,2 7,7 - - 9 5 - - SW 1012,2 15 0,0
18.06.2018 04:00:00 11,2 8,1 - - 8 4 - - SW 1011,9 17 0,0
18.06.2018 03:00:00 11,3 8,6 - - 9 5 - - SSW 1011,5 17 0,0
18.06.2018 02:00:00 11,7 8,4 - - 8 4 - - SW 1011,7 23 0,0
18.06.2018 01:00:00 12,3 8,9 - - 15 8 - - SW 1011,5 24 0,0
18.06.2018 00:00:00 12,5 8,4 - - 9 5 - - SSW 1011,0 30 0,0
17.06.2018 23:00:00 12,9 10,0 - - 15 8 - - WSW 1010,7 30 0,0
17.06.2018 22:00:00 13,4 10,9 - - 16 9 - - WSW 1009,7 30 0,0
17.06.2018 21:00:00 14,2 12,3 - - 11 6 - - WSW 1009,1 30 0,0
17.06.2018 20:00:00 15,1 12,0 - - 9 5 - - WSW 1008,8 30 0,0
17.06.2018 19:00:00 15,6 11,6 - - 16 9 - - W 1008,3 35 0,0
17.06.2018 18:00:00 15,9 12,4 - - 22 12 - - W 1007,9 30 0,2
17.06.2018 17:00:00 16,4 14,6 - - 13 7 - - S 1007,0 25 0,0
17.06.2018 16:00:00 15,0 14,0 - - 16 9 - - SSE 1007,0 19 0,0
17.06.2018 15:00:00 14,1 13,3 - - 16 9 - - SSE 1007,0 9 0,0
17.06.2018 14:00:00 13,4 12,0 - - 18 10 - - S 1007,5 14 0,0
17.06.2018 13:00:00 12,8 11,2 - - 21 11 - - SSE 1007,4 14 0,0
17.06.2018 12:00:00 13,1 10,4 - - 22 12 - - SSE 1007,6 24 0,2
17.06.2018 11:00:00 12,6 9,8 - - 18 10 - - S 1008,4 27 0,0
17.06.2018 10:00:00 12,7 9,9 17,2 13,7 18 10 - - S 1008,9 22 0,0
17.06.2018 09:00:00 12,1 9,8 - - 15 8 - - S 1009,1 16 0,0
17.06.2018 08:00:00 11,9 10,3 - - 11 6 - - S 1009,1 13 0,0
17.06.2018 07:00:00 11,2 9,9 - - 11 6 - - S 1009,2 18 0,0
17.06.2018 06:00:00 11,0 9,7 - - 8 4 - - SW 1009,2 22 0,0
17.06.2018 05:00:00 10,7 9,8 - - 5 3 - - WSW 1009,2 6 0,0
17.06.2018 04:00:00 10,8 9,3 - - 9 5 - - S 1009,0 27 0,0
17.06.2018 03:00:00 11,0 9,3 - - 9 5 - - S 1009,0 22 0,0
17.06.2018 02:00:00 11,3 9,3 - - 9 5 - - SW 1009,2 22 0,0
17.06.2018 01:00:00 11,5 9,1 - - 9 5 - - WSW 1009,4 26 0,0
17.06.2018 00:00:00 11,6 8,5 - - 9 5 - - SW 1009,4 24 0,0
16.06.2018 23:00:00 12,1 8,0 - - 8 4 - - SW 1009,2 27 0,0
16.06.2018 22:00:00 12,4 7,3 - - 5 3 - - SW 1008,8 24 0,0
16.06.2018 21:00:00 12,9 6,7 - - 8 4 - - W 1008,5 23 0,0
16.06.2018 20:00:00 13,9 6,0 - - 11 6 - - W 1008,3 24 0,0
16.06.2018 19:00:00 14,7 6,8 - - 9 5 - - W 1007,7 21 0,0

tt = temperature
td = dewpoint
tt -20cm = temperature -20cm
tt -100cm = temperature -100cm
ff = wind speed
fx = gusts
dd = wind direction
ppp = reduced air pressure
vv = visibility
rr = precipitation

Next stations